sat.trackr.live / text

‹ back to catalog

2025-313P

NORAD 67261 · 2025-313P

PAYLOAD ACTIVE UNKNOWN

§ Identity

Operator
Country
TBD
Launch date
2025-12-28
Launch site
VOSTO
Launch vehicle
Mass (kg)
RCS (m²)

External: N2YO · Heavens-Above · Gunter

§ Orbital elements

Epoch: 2026-09-20T04:15:32.766048Z

Period
94.16 min
Inclination
97.3892°
Eccentricity
0.0012863
Mean motion
15.29233066 rev/d
Perigee alt
469.3 km
Apogee alt
486.9 km
Semi-major
6,856.2 km
B*
4.3547e-4
RAAN
337.5655°
Arg perigee
29.8994°
Mean anomaly
330.2978°
Rev number
4,048

§ Raw data

2025-313P1 67261U 25313P   26263.17746257  .00012313  00000+0  43547-3 0  99992 67261  97.3892 337.5655 0012863  29.8994 330.2978 15.29233066 40482

JSON: /api/v1/satellites/67261 · /tle

For live sub-satellite position, see the globe view (requires WebGL).

§ Visibility from observer

Set your observer location to see the next 7 days of passes ≥ 10°. The values pass through the URL so the page stays shareable.

No JS? Fill the form by hand. The geolocation button needs JavaScript.